Regional Weather Roundup
Issued by NWS

Home | Current Version | Previous Version | Text Only | Print | Product List | Glossary Off
Versions: 1 2 3 4 5 6 7 8 9 10 11 12 13 14 15 16 17 18 19 20 21 22 23 24 25 26 27 28 29 30 31 32 33 34 35 36 37 38 39 40 41 42 43 44 45 46 47 48 49 50

000
ASUS43 KLOT 231204
RWRIL

ILLINOIS REGIONAL WEATHER ROUNDUP
NATIONAL WEATHER SERVICE CHICAGO/ROMEOVILLE IL
700 AM CDT SAT SEP 23 2017

NOTE: "FAIR" INDICATES FEW OR NO CLOUDS BELOW 12,000 FEET WITH NO
SIGNIFICANT WEATHER AND/OR OBSTRUCTIONS TO VISIBILITY.

* THESE STATIONS ARE NOT UNDER NWS QUALITY CONTROL. THEY ALSO MAY NOT
  REPORT WEATHER SUCH AS PRECIPITATION OR FOG.

ILZ001-002-007-009-015-016-024-231300-
NORTHWEST ILLINOIS

CITY           SKY/WX    TMP DP  RH WIND       PRES   REMARKS
MOLINE         CLEAR     66  62  87 CALM      30.03R
6HR MIN TEMP:  65; 6HR MAX TEMP:  75;

STERLING*      CLEAR     65  64  97 E3        30.06R
SAVANNA*       PTCLDY    64  63  97 NE3       30.05R
$$

ILZ003-004-008-010-011-017-018-231300-
NORTH CENTRAL ILLINOIS

CITY           SKY/WX    TMP DP  RH WIND       PRES   REMARKS
ROCKFORD       CLEAR     68  63  84 CALM      30.08R
6HR MIN TEMP:  66; 6HR MAX TEMP:  73;

FREEPORT*      PTCLDY    65  63  93 CALM      30.08R
ROCHELLE*      PTCLDY    65  64  95 CALM      30.08R
DE KALB*       MOCLDY    68  65  89 SE3       30.09R
$$

ILZ005-006-012>014-019>023-231300-
NORTHEAST ILLINOIS

CITY           SKY/WX    TMP DP  RH WIND       PRES   REMARKS
CHICAGO-OHARE  PTCLDY    74  65  73 CALM      30.07R
6HR MIN TEMP:  72; 6HR MAX TEMP:  79;

CHICAGO-MIDWAY PTCLDY    76  66  71 S6        30.07R
6HR MIN TEMP:  75; 6HR MAX TEMP:  81;

AURORA         CLEAR     64  64 100 CALM      30.08R FOG
6HR MIN TEMP:  64; 6HR MAX TEMP:  71;

LANSING*       CLEAR     65  65 100 CALM      30.09R
JOLIET*        CLEAR     69  67  94 CALM      30.08R
WAUKEGAN       CLEAR     67  66  97 CALM      30.08R FOG
6HR MIN TEMP:  67; 6HR MAX TEMP:  75;

DUPAGE AIRPORT CLEAR     66  65  96 CALM      30.08R
6HR MIN TEMP:  66; 6HR MAX TEMP:  71;

KANKAKEE*      PTCLDY    65  64  98 CALM      30.09R
WHEELING       CLEAR     71  68  90 CALM      30.09R FOG
6HR MIN TEMP:  69; 6HR MAX TEMP:  75;

MORRIS*        CLEAR     68  65  90 CALM      30.06R
NORTHERLY ISL    N/A     72  66  81 SE6         N/A
$$

LMZ740>746-231300-
SOUTHERN LAKE MICHIGAN

STATION/POSITION SKY/WX   TEMP    WIND        PRES    VSBY  WAVE
                          AIR SEA DIR/SP/G                  HT/PER
                          (F)     (DEG/KT/KT) (MB)    (MI)  (FT/S)
SOUTHERN BUOY              72 70  140/  6/  6 1018.0          0
WILMETTE HARBOR            74 72  150/  4/  4   N/A           0
HARRISON CRIB              77     160/  9/ 10   N/A
BURNHAM HARBOR             72                   N/A
CALUMET HARBOR             73      CALM  /  1 1017.8R
BURNS HARBOR               72     190/  2/  3 1019.3R
MICHIGAN CITY              73     210/  2/  2   N/A
MICHIGAN CITY 6N           72 71  250/  2/  4   N/A           0
ST. JOSEPH                 73 71   CALM  /  2 1018.8R         1
$$

ILZ025>027-034>036-040-047-049-050-058-095>099-231300-
WEST-CENTRAL ILLINOIS

CITY           SKY/WX    TMP DP  RH WIND       PRES   REMARKS
QUINCY         CLEAR     70  62  76 CALM      30.04R
GALESBURG*     CLEAR     66  63  88 CALM      30.06R
MACOMB*        CLEAR     61  60  96 CALM      30.06R
$$

ILZ028>032-037-038-041>044-048-051>054-059>061-231300-
CENTRAL ILLINOIS

CITY           SKY/WX    TMP DP  RH WIND       PRES   REMARKS
BLOOMINGTON    CLEAR     68  65  90 S6        30.09R
DECATUR        CLEAR     65  63  93 E3        30.07R
PEORIA         CLEAR     69  66  90 CALM      30.06R
6HR MIN TEMP:  69; 6HR MAX TEMP:  78;

LACON*         CLEAR     66  65  95 CALM      30.05R
LINCOLN*       CLEAR     65  65  99 CALM      30.06R
SPRINGFIELD    CLEAR     68  65  90 CALM      30.05S
6HR MIN TEMP:  68; 6HR MAX TEMP:  75;

TAYLORVILLE    NOT AVBL
$$

ILZ033-039-045-046-055>057-062-063-231300-
EAST-CENTRAL ILLINOIS

CITY           SKY/WX    TMP DP  RH WIND       PRES   REMARKS
CHAMPAIGN      PTCLDY    67  64  90 E5        30.09R
MATTOON        CLEAR     68  68 100 CALM      30.07R
PARIS*         CLEAR     64  64 100 CALM      30.09R FOG
$$

ILZ079-100>102-231300-
SOUTHWEST ILLINOIS

CITY           SKY/WX    TMP DP  RH WIND       PRES   REMARKS
ALTON          CLEAR     64  64 100 VRB3      30.05R
CAHOKIA*       CLEAR     65  62  90 CALM      30.04R
SPARTA*        CLEAR     66  65  97 CALM      30.06R
$$

ILZ064>066-069>071-074>076-080>082-084>086-088>090-092>094-231300-
SOUTH-CENTRAL ILLINOIS

CITY           SKY/WX    TMP DP  RH WIND       PRES   REMARKS
CARBONDALE     CLEAR     64  64 100 CALM      30.05R FOG
6HR MIN TEMP:  62; 6HR MAX TEMP:  67;

CAIRO*         MOCLDY    65  65 100 CALM      30.04S FOG
EFFINGHAM*     CLEAR     64  64 100 CALM      30.09R FOG
MARION         CLEAR     64  64 100 CALM      30.07R FOG
MT. VERNON       N/A     61  61 100 CALM      30.06R
CENTRALIA*     CLEAR     63  63  99 CALM      30.05S FOG
SALEM*         CLEAR     66  64  94 CALM      30.07R FOG
METROPOLIS*    CLEAR     64  64  98 CALM      30.05R FOG
$$

ILZ067-068-072-073-078-083-087-091-231300-
SOUTHEAST ILLINOIS

CITY           SKY/WX    TMP DP  RH WIND       PRES   REMARKS
LAWRENCEVILLE  CLEAR     67  67 100 NE3       30.08R FOG
FLORA*         CLEAR     65  64  95 CALM      30.07R FOG
FAIRFIELD*     CLEAR     64  64  99 CALM      30.06R FOG
HARRISBURG*    CLEAR     63  62  99 CALM      30.06R FOG
ROBINSON*      FOG       61  61 100 CALM      30.09R VSB<1/4
CARMI*         PTCLDY    62  62 100 CALM      30.06R FOG
$$

ABBREVIATIONS USED IN REMARKS
   TC - TEMPERATURE IN CELSIUS
  WCI - WIND CHILL INDEX
   HX - HEAT INDEX
  VSB - VISIBILITY
$$




USA.gov is the U.S. government's official web portal to all federal, state and local government web resources and services.